This is the latest recevied weather packets stored in our database for station/object W0BJ. If no packets are shown the sender has not sent any weather packets the latest 1 day(s).
| Time | Temp. | Humidity | Pressure | Rain* | Wind** | Luminosity | Snow |
|---|---|---|---|---|---|---|---|
| 1778027947 | 8.33° C | 90% | 1014.4 hPa | 0.76 mm | 0 m/s | - | - |
| 1778027899 | 8.33° C | 90% | 1014.4 hPa | 0.76 mm | 0 m/s | - | - |
| 1778027346 | 8.33° C | 89% | 1013.5 hPa | 1.27 mm | 0 m/s | - | - |
| 1778026998 | 8.33° C | 90% | 1013.6 hPa | 1.27 mm | 0.45 m/s, 28° | - | - |
| 1778026746 | 8.33° C | 90% | 1013.7 hPa | 1.27 mm | 0 m/s | - | - |
| 1778026145 | 8.33° C | 89% | 1013.6 hPa | 1.27 mm | 0.89 m/s, 28° | - | - |
| 1778026097 | 8.33° C | 89% | 1013.5 hPa | 1.27 mm | 0.89 m/s, 28° | - | - |
| 1778025545 | 8.33° C | 89% | 1013.5 hPa | 1.02 mm | 0.89 m/s, 359° | - | - |
| 1778025198 | 8.33° C | 90% | 1013.8 hPa | 1.02 mm | 0.45 m/s, 325° | - | - |
| 1778024946 | 8.33° C | 90% | 1013.7 hPa | 1.02 mm | 0.45 m/s, 342° | - | - |
| 1778024345 | 8.33° C | 89% | 1013.4 hPa | 1.02 mm | 1.34 m/s, 8° | - | - |
| 1778024297 | 8.33° C | 89% | 1013.3 hPa | 1.02 mm | 2.24 m/s, 1° | - | - |
| 1778023745 | 8.33° C | 88% | 1013.8 hPa | 0.51 mm | 1.34 m/s, 1° | - | - |
| 1778023397 | 8.33° C | 88% | 1013.8 hPa | 0.51 mm | 2.68 m/s, 34° | - | - |
| 1778023145 | 8.33° C | 87% | 1014 hPa | 0.51 mm | 0 m/s | - | - |
| 1778022545 | 8.89° C | 86% | 1013.4 hPa | 0.25 mm | 2.68 m/s, 8° | - | - |
| 1778022500 | 8.89° C | 87% | 1013.3 hPa | 0.25 mm | 3.13 m/s, 4° | - | - |
| 1778022145 | 8.89° C | 87% | 1012.9 hPa | 0 mm | 0 m/s | - | - |
| 1778021599 | 8.89° C | 85% | 1013.6 hPa | 0 mm | 1.34 m/s, 0° | - | - |
| 1778021545 | 8.89° C | 85% | 1013.3 hPa | 0 mm | 2.24 m/s, 0° | - | - |
| 1778020944 | 8.89° C | 85% | 1012.8 hPa | 0 mm | 1.34 m/s, 24° | - | - |
| 1778020698 | 8.89° C | 86% | 1012.9 hPa | 0 mm | 1.34 m/s, 18° | - | - |
| 1778020344 | 8.89° C | 86% | 1012.8 hPa | 0 mm | 2.24 m/s, 11° | - | - |
| 1778019798 | 8.89° C | 86% | 1012.6 hPa | 0 mm | 0.89 m/s, 37° | - | - |
| 1778019744 | 8.89° C | 86% | 1012.7 hPa | 0 mm | 1.34 m/s, 13° | - | - |
* Rain latest hour (hover to see other rain measurements)
** Current wind speed in m/s (hover to see current wind gust speed)